RH
24 23 22 21 20 20 19 19 19 19 19 18 18 19 20 24 27 29 34 42 51 60 68 74 79 76 72 59 49 44 39 33 30 30 40 55 55 51 27 19 14 9 12 19
20 20 20 20 20 20 20 21 21 20 19 20 20 22 25 25 28 30 37 42 45 54 76 88 84 76 63 56 50 41 37 35 38 43 58 62 56 35 21 16 10 14 27 39
16 17 17 17 19 20 21 22 22 20 19 21 23 34 38 31 30 34 39 42 48 65 79 82 78 71 67 58 47 43 42 45 47 54 61 61 42 22 15 10 13 28 45 55
17 18 16 19 20 21 21 22 22 21 20 21 34 42 39 34 32 36 40 49 59 71 78 80 76 73 62 55 54 50 51 51 56 63 64 48 26 17 11 12 21 48 54 65
24 21 20 19 21 22 22 22 23 23 22 21 34 42 39 34 34 37 47 53 52 68 83 80 75 66 64 60 56 58 60 63 67 67 53 38 22 12 12 15 36 55 58 78
32 29 22 20 22 24 24 21 24 24 22 22 28 44 40 35 37 42 53 51 57 79 83 77 71 67 66 67 64 66 68 71 66 57 49 26 14 12 14 22 50 58 57 74
30 27 20 25 25 26 23 24 24 24 22 21 44 52 41 39 42 49 52 54 74 78 77 74 74 82 74 70 70 72 76 68 58 46 28 16 13 12 17 31 57 62 68 76
27 26 20 27 26 25 24 25 25 24 22 37 55 48 44 45 44 48 50 72 76 81 84 88 89 74 75 71 74 80 70 58 44 28 19 13 14 12 24 46 73 76 72 70
35 32 30 28 25 24 25 26 25 23 30 54 54 48 47 42 39 49 76 86 90 92 93 89 78 80 76 78 85 74 56 42 31 20 14 16 14 19 34 60 93 97 88 82
34 35 33 29 28 27 27 24 24 29 46 51 48 46 40 41 52 82 78 81 85 90 86 86 88 84 83 88 74 54 40 31 21 16 17 19 17 33 40 49 65 94 97 92
29 36 33 31 33 30 24 24 32 43 47 46 46 45 44 61 91 87 88 87 89 91 95 96 89 89 87 69 48 39 33 23 18 18 22 22 28 43 50 50 71 96 99 96
28 32 26 24 25 28 34 38 41 46 49 53 56 60 77 98 100 96 93 92 96 100 100 95 91 86 63 47 39 33 23 20 19 22 25 26 38 44 49 68 95 100 100 99
27 28 30 36 46 49 49 49 50 62 67 74 78 73 94 99 92 97 99 100 100 100 97 92 81 60 46 37 30 22 20 21 23 30 31 34 41 51 88 98 94 99 99 97
52 55 57 59 51 49 51 66 77 75 78 80 87 94 90 97 100 100 100 100 100 100 95 73 56 42 32 24 18 18 20 24 32 38 39 41 44 65 93 100 98 96 98 93
63 60 55 44 40 64 84 80 77 77 75 82 88 98 100 100 100 100 100 100 100 90 66 49 34 27 19 14 16 19 25 32 42 44 46 51 52 57 83 94 100 100 100 95
32 34 47 56 56 73 87 92 94 82 84 91 99 100 100 100 100 100 100 100 81 56 40 29 21 13 14 18 18 25 31 42 52 53 56 58 63 68 69 98 100 98 98 98
66 79 80 79 87 96 94 95 100 100 100 100 100 100 100 100 100 100 99 68 47 33 24 18 13 19 23 21 21 31 42 53 61 60 66 64 71 70 95 99 79 81 96 100
88 82 79 82 93 99 100 100 100 100 100 100 100 100 100 100 100 87 53 39 29 22 17 15 21 26 28 24 30 46 56 62 68 69 78 78 76 90 100 98 92 87 93 99
87 86 87 90 100 100 100 100 100 100 100 100 100 100 100 98 74 53 38 27 22 17 15 24 26 30 30 29 44 56 65 72 80 73 81 83 89 92 99 100 96 97 97 100
75 76 81 91 100 100 100 100 100 100 100 100 100 100 88 72 52 36 25 21 18 14 22 28 32 36 32 39 58 67 74 86 90 74 75 82 85 87 88 92 99 100 99 99
76 82 97 100 100 100 100 100 100 100 100 100 93 81 64 42 31 25 22 18 17 24 27 27 38 42 39 53 72 81 94 94 93 93 94 86 79 81 83 91 100 100 100 100
96 100 100 100 100 100 100 100 100 100 96 87 68 45 34 30 27 24 22 18 20 28 29 30 47 48 53 63 81 97 99 100 97 91 89 93 97 99 100 99 100 100 100 100
95 94 97 100 100 100 100 100 93 81 60 42 33 30 28 28 26 23 20 23 27 29 28 29 54 54 62 78 82 97 100 100 98 95 93 87 85 95 100 100 100 100 100 100
100 100 100 100 100 97 86 58 40 30 25 26 30 33 33 31 27 28 24 27 29 28 24 28 60 58 60 78 91 94 93 93 90 88 88 87 89 92 98 96 96 100 100 100
99 91 77 55 38 23 18 18 20 26 30 33 34 36 35 32 28 27 32 31 29 25 20 28 63 64 62 72 88 95 98 99 99 96 93 93 95 92 86 76 81 100 100 100
25 20 16 16 15 17 21 26 27 29 31 31 30 31 33 32 30 33 32 29 27 21 19 25 53 63 64 68 91 98 99 99 94 89 85 82 84 88 81 60 64 91 100 100
14 15 16 22 32 33 34 35 36 34 34 33 29 30 31 35 39 36 33 30 25 20 22 28 42 60 65 71 98 100 100 100 99 90 80 76 62 62 78 76 65 71 92 100
Wind_Speed
13 14 15 16 17 18 18 19 21 23 22 26 27 28 30 32 32 33 34 36 38 41 44 47 50 54 56 57 61 65 69 75 80 85 88 89 92 96 95 96 95 77 57 48
17 17 19 19 21 24 23 24 25 27 27 28 30 31 34 35 36 38 38 40 42 45 48 50 54 55 57 61 65 69 73 79 84 87 88 90 94 94 93 94 75 55 43 39
22 23 24 22 24 28 28 27 30 32 32 32 34 37 39 39 40 41 43 44 46 48 50 53 54 57 61 65 69 73 78 84 85 86 87 92 92 91 90 75 56 44 39 37
28 29 31 26 28 31 33 30 33 35 36 35 37 40 41 43 44 44 46 46 49 51 53 54 56 60 64 69 73 78 83 86 86 86 89 90 89 89 78 58 44 39 39 37
34 34 36 32 30 34 37 34 36 38 39 39 42 44 45 48 47 48 48 49 53 54 53 55 59 63 68 73 78 83 84 84 85 88 89 89 88 80 61 47 37 37 37 37
38 41 41 36 35 39 41 38 39 41 42 43 44 47 47 48 49 50 50 53 55 54 55 58 62 67 73 77 81 83 82 84 87 89 90 86 80 66 50 40 35 35 37 38
41 43 44 39 40 42 42 42 41 43 44 44 46 49 50 50 51 51 53 56 56 56 58 62 67 73 77 80 83 82 82 86 88 88 85 79 68 55 42 36 34 35 37 39
40 42 44 40 43 44 43 43 45 46 46 47 50 51 51 52 52 54 56 58 57 58 63 68 73 76 79 83 83 81 84 88 88 82 79 69 59 45 36 33 33 35 38 40
40 40 40 43 45 44 45 46 48 46 46 51 53 51 53 53 54 57 59 60 61 64 69 73 76 79 82 81 80 83 86 87 80 75 69 60 50 38 34 32 33 35 38 40
39 37 39 43 45 45 47 48 47 46 52 53 52 53 53 55 57 59 60 62 65 69 71 75 77 81 81 80 83 87 85 78 72 66 61 52 42 36 33 33 34 35 38 39
42 39 43 43 43 45 46 47 48 52 52 52 53 53 55 57 58 60 63 66 69 71 74 76 79 78 79 82 85 82 76 70 65 60 53 46 38 34 32 32 32 33 36 36
39 41 43 43 44 45 46 49 51 51 52 53 54 57 57 58 61 65 69 71 72 74 76 77 76 77 82 84 82 76 70 65 60 54 47 40 34 31 31 30 30 31 33 32
41 42 42 42 43 46 47 49 49 50 52 54 57 59 59 59 63 68 71 73 73 76 76 75 77 82 84 81 76 71 66 59 53 48 42 35 31 29 28 29 29 30 31 30
39 41 41 43 46 47 47 48 49 51 53 55 56 56 59 64 68 71 73 73 75 74 73 78 83 82 80 76 71 66 59 53 47 43 38 34 30 28 28 29 30 31 29 29
42 43 45 47 47 46 45 46 49 52 53 54 56 58 60 65 69 72 73 74 72 73 78 81 80 79 75 70 65 58 51 47 42 39 34 32 30 29 28 28 26 27 28 27
45 44 45 46 47 49 51 53 55 55 55 57 59 62 66 68 69 71 72 69 73 78 79 79 78 72 66 63 58 51 46 42 39 35 32 30 29 28 27 24 24 26 27 26
44 43 42 45 48 49 55 54 52 53 57 62 64 65 67 69 70 69 68 74 75 77 77 74 67 61 60 58 53 47 42 38 36 32 30 29 27 27 23 22 24 26 26 25
44 47 49 50 50 50 52 55 59 61 62 61 64 66 69 68 64 69 72 73 74 73 70 63 57 58 58 54 49 43 38 36 32 29 28 27 26 24 23 23 25 26 26 25
49 50 50 51 50 51 54 57 58 59 60 62 65 66 63 66 69 70 72 73 71 67 62 57 56 56 54 50 44 38 34 31 30 28 26 26 25 24 24 25 26 28 27 26
57 57 55 56 58 59 58 57 56 59 61 63 59 64 67 68 70 71 70 67 66 62 58 57 55 53 49 44 38 33 29 28 28 27 27 26 26 27 27 27 27 29 29 27
58 57 57 59 56 55 57 57 56 56 55 62 66 67 68 68 70 69 65 62 60 59 57 55 53 48 42 38 34 29 27 26 26 26 27 27 28 29 30 30 29 29 30 30
55 53 53 52 52 53 55 56 56 62 65 66 66 67 68 66 65 64 61 61 57 57 57 53 48 42 37 35 31 27 27 28 28 29 29 29 30 31 31 31 31 31 31 31
48 47 49 51 55 56 59 63 64 64 63 65 66 65 63 61 60 60 59 59 59 57 59 49 43 38 35 33 31 30 31 32 33 35 35 35 34 33 33 33 32 31 30 31
53 57 59 59 61 61 61 60 61 63 64 62 60 60 60 59 60 63 60 57 57 56 58 43 38 36 34 33 32 32 33 35 37 38 38 38 37 36 35 35 34 33 32 32
52 51 53 54 55 58 59 60 59 58 57 56 57 58 61 61 62 58 55 54 54 53 52 39 35 35 34 34 34 34 34 36 37 38 38 38 37 37 37 37 37 35 33 32
53 54 56 58 60 60 59 58 58 58 57 58 59 60 59 61 58 54 52 51 51 50 47 37 35 34 35 34 34 34 36 37 38 39 40 40 39 39 38 37 37 37 36 34
57 57 56 56 57 58 58 58 58 59 60 60 59 60 59 55 53 51 50 49 47 46 43 37 35 35 35 34 35 36 38 40 42 43 42 42 41 39 39 39 38 38 39 39
Wind_Direction
230 243 256 269 278 282 290 298 307 313 314 315 319 318 319 320 317 313 309 306 303 300 298 299 301 303 307 308 309 309 310 312 314 315 314 314 316 316 317 317 317 316 316 315
243 253 264 273 284 288 292 300 303 309 312 315 317 319 319 317 316 313 309 308 308 307 304 302 303 305 307 308 310 311 313 314 315 314 315 316 317 317 318 318 317 315 317 320
250 259 265 270 280 284 289 296 301 305 310 315 316 318 317 316 314 311 310 310 310 308 304 303 305 306 308 309 311 312 314 315 315 316 317 317 317 318 319 319 315 313 318 318
258 264 267 275 280 287 289 294 298 302 307 312 314 314 314 313 310 309 310 311 311 306 304 306 307 308 309 311 312 314 315 316 315 317 318 317 318 320 320 316 312 311 315 314
264 268 273 278 282 283 289 292 296 298 304 307 312 315 312 312 310 310 308 308 309 308 307 307 308 308 310 312 315 316 315 315 317 317 318 318 320 320 317 313 309 310 313 311
265 269 272 277 280 283 286 292 293 299 304 306 310 312 310 308 306 305 304 309 309 307 307 308 310 311 313 316 317 316 315 317 317 318 317 320 321 318 314 309 308 310 312 311
264 269 273 278 281 284 287 289 295 297 301 305 310 310 307 305 304 303 307 310 309 308 308 310 311 313 316 317 317 316 316 316 318 317 320 323 320 316 310 308 310 313 313 312
269 272 277 280 281 282 286 290 293 297 303 307 309 306 304 303 303 306 308 308 309 309 310 312 314 316 318 317 316 315 316 317 317 321 323 322 319 315 309 307 310 313 314 314
273 277 281 282 281 285 287 290 293 298 301 306 303 301 302 302 306 307 308 310 310 310 312 314 316 316 317 315 315 315 317 317 320 322 322 321 319 313 308 308 308 310 313 315
280 281 279 280 282 285 287 289 292 296 300 302 301 303 303 306 306 308 310 311 311 311 313 315 315 316 315 315 316 317 317 320 322 322 320 321 317 312 308 307 306 309 312 316
280 282 279 281 284 285 287 289 292 297 300 301 302 301 303 304 305 309 311 311 311 312 313 313 315 315 315 316 316 316 319 320 321 320 321 318 313 311 308 309 309 310 312 315
281 280 282 286 287 290 292 295 298 300 301 301 300 300 303 302 304 307 309 311 312 313 313 315 315 314 316 316 316 318 319 320 319 319 319 315 312 310 309 310 311 312 312 313
282 284 287 289 289 291 293 294 297 298 298 298 298 300 301 300 304 307 309 311 311 313 314 315 314 315 315 316 318 318 319 318 317 318 316 314 312 311 312 310 311 312 311 315
284 285 287 288 290 291 292 295 297 298 298 298 300 300 302 306 307 307 308 309 311 313 313 314 314 314 315 317 317 318 317 315 316 316 314 311 311 311 310 310 311 311 312 316
287 289 291 292 291 290 292 296 298 299 301 302 302 303 300 298 302 303 306 309 311 312 313 313 313 315 317 317 318 316 315 314 314 314 312 307 306 308 309 308 309 308 310 314
289 290 290 291 290 288 290 293 297 300 300 298 298 294 297 300 300 303 307 309 311 312 312 313 315 317 317 319 318 317 315 313 313 311 312 308 305 306 306 305 307 307 308 311
287 290 295 296 294 291 290 293 297 294 289 289 292 294 293 297 303 305 308 310 310 311 313 315 317 319 320 319 317 316 313 312 312 310 311 310 306 305 302 303 307 309 308 308
284 289 291 292 292 292 294 295 295 296 295 294 288 286 294 301 304 308 310 310 310 313 315 317 319 320 320 319 317 314 311 311 312 308 308 310 307 303 300 300 304 310 307 306
290 293 292 292 294 295 292 291 292 290 286 284 289 296 300 304 308 309 309 309 312 314 315 316 317 319 319 319 316 314 311 314 314 307 304 306 303 302 297 297 302 305 306 303
293 294 292 292 294 295 292 289 284 282 287 295 297 302 307 307 307 308 309 312 313 315 315 317 317 318 319 318 317 315 313 315 317 312 304 301 302 301 298 299 300 301 303 301
292 292 293 293 289 284 283 286 290 294 292 298 304 306 305 304 306 308 310 312 313 315 317 316 315 315 317 319 318 313 313 316 317 316 313 307 302 299 297 297 297 298 298 300
291 291 289 288 287 286 286 288 290 296 300 302 303 302 303 304 306 308 311 313 313 314 316 313 310 310 313 319 315 306 305 311 316 318 318 317 311 305 301 299 298 295 295 294
289 288 286 285 286 287 287 293 297 300 301 299 299 301 303 305 307 308 310 311 310 311 312 309 304 305 306 312 315 304 301 303 307 310 312 313 312 309 305 299 296 294 292 290
275 277 280 283 291 298 301 300 298 297 298 299 301 304 305 306 308 308 308 307 306 306 310 305 300 300 300 304 307 307 306 304 304 304 305 305 305 303 302 300 295 291 291 289
293 302 304 302 298 295 295 295 296 298 300 302 303 304 305 305 305 306 304 304 304 306 308 300 297 298 299 299 302 304 305 307 306 306 306 304 303 301 299 298 295 291 289 288
303 304 302 299 297 296 297 298 300 301 302 302 302 303 304 305 304 303 303 303 304 305 305 299 294 298 299 298 300 299 303 307 308 308 307 306 302 299 297 296 294 289 286 286
303 300 298 298 298 299 299 300 301 301 302 303 304 304 304 302 303 304 304 304 304 303 304 300 296 298 299 297 297 298 300 302 304 306 307 306 304 300 295 292 291 289 283 281